User: anonymous
Location: Holcomb Observatory
(44.4922°N, 73.1654°W)
Time: 13:24:16
(UTC-04:00)
Language:

SL-16 R/B - Orbit

View from above orbital plane
View from above orbital plane
View from above satellite
View from above satellite

Ground track
Ground track

The orbit data is extracted from the following two-line orbital elements,

1 27006U 01056F   14113.60876150 -.00000022  00000-0  21508-4 0  1122
2 27006 099.1603 284.0672 0015469 077.2043 327.2067 13.70915865618841
Epoch (UTC): 23 April 2014 14:36:36
Eccentricity: 0.0015469
inclination: 99.1603°
perigee height: 985 km
apogee height: 1007 km
right ascension of ascending node: 284.0672°
argument of perigee: 77.2043°
revolutions per day: 13.70915865
mean anomaly at epoch: 327.2067°
orbit number at epoch: 61884

The dashed part of the orbit path shows where the satellite is in the earth's shadow,  

DLR